This is the latest recevied weather packets stored in our database for station/object DB0TGO-14. If no packets are shown the sender has not sent any weather packets the latest 1 day(s).
| Time | Temp. | Humidity | Pressure | Rain* | Wind** | Luminosity | Snow |
|---|---|---|---|---|---|---|---|
| 1778009083 | 14.44° C | 90% | 1008.5 hPa | 0 mm | 1.79 m/s, 68° | - | - |
| 1778008975 | 14.44° C | 89% | 1008.5 hPa | 0 mm | 1.79 m/s, 68° | - | - |
| 1778008867 | 14.44° C | 89% | 1008.5 hPa | 0 mm | 1.79 m/s, 68° | - | - |
| 1778008754 | 14.44° C | 89% | 1008.5 hPa | 0 mm | 1.79 m/s, 45° | - | - |
| 1778008645 | 14.44° C | 89% | 1008.4 hPa | 0 mm | 1.79 m/s, 45° | - | - |
| 1778008539 | 14.44° C | 89% | 1008.4 hPa | 0 mm | 1.79 m/s, 22° | - | - |
| 1778008430 | 14.44° C | 89% | 1008.4 hPa | 0 mm | 1.79 m/s, 22° | - | - |
| 1778008315 | 14.44° C | 89% | 1008.3 hPa | 0 mm | 1.79 m/s, 22° | - | - |
| 1778008205 | 14.44° C | 89% | 1008.4 hPa | 0 mm | 1.79 m/s, 22° | - | - |
| 1778008085 | 15° C | 89% | 1008.3 hPa | 0 mm | 2.24 m/s, 22° | - | - |
| 1778008037 | 15° C | 88% | 1008.4 hPa | 0 mm | 1.79 m/s, 45° | - | - |
| 1778007970 | 15° C | 88% | 1008.3 hPa | 0 mm | 1.79 m/s, 338° | - | - |
| 1778007854 | 15° C | 88% | 1008.4 hPa | 0 mm | 1.79 m/s, 315° | - | - |
| 1778007740 | 15° C | 88% | 1008.4 hPa | 0 mm | 1.34 m/s, 22° | - | - |
| 1778007630 | 15° C | 88% | 1008.4 hPa | 0 mm | 0.89 m/s, 22° | - | - |
| 1778007515 | 15° C | 88% | 1008.5 hPa | 0 mm | 0.89 m/s, 135° | - | - |
| 1778007406 | 15° C | 87% | 1008.4 hPa | 0 mm | 0.89 m/s, 22° | - | - |
| 1778007308 | 15° C | 87% | 1008.5 hPa | 0 mm | 1.34 m/s, 338° | - | - |
| 1778007197 | 15° C | 87% | 1008.4 hPa | 0 mm | 1.34 m/s, 338° | - | - |
| 1778007090 | 15° C | 87% | 1008.3 hPa | 0 mm | 1.79 m/s, 22° | - | - |
| 1778007066 | 15° C | 87% | 1008.3 hPa | 0 mm | 1.79 m/s, 22° | - | - |
| 1778006995 | 15° C | 87% | 1008.4 hPa | 0 mm | 1.79 m/s, 22° | - | - |
| 1778006881 | 15.56° C | 87% | 1008.3 hPa | 0 mm | 2.24 m/s, 22° | - | - |
| 1778006775 | 15.56° C | 87% | 1008.3 hPa | 0 mm | 2.24 m/s, 68° | - | - |
| 1778006665 | 15.56° C | 87% | 1008.3 hPa | 0 mm | 2.24 m/s, 22° | - | - |
* Rain latest hour (hover to see other rain measurements)
** Current wind speed in m/s (hover to see current wind gust speed)